Regional Weather Roundup
Issued by NWS Charleston, SC

Home | Current Version | Previous Version | Text Only | Print | Product List | Glossary On
Versions: 1 2 3 4 5 6 7 8 9 10 11 12 13 14 15 16 17 18 19 20 21 22 23 24 25 26 27 28 29 30 31 32 33 34 35 36 37 38 39 40 41 42 43 44 45 46 47 48 49 50
000
ASUS42 KCHS 262226
RWRCHS

REGIONAL WEATHER ROUNDUP
NATIONAL WEATHER SERVICE CHARLESTON SC
600 PM EDT THU MAR 26 2015

NOTE: "FAIR" INDICATES FEW OR NO CLOUDS BELOW 12,000 FEET WITH NO
SIGNIFICANT WEATHER AND/OR OBSTRUCTIONS TO VISIBILITY.

NOT ALL STATIONS ARE QUALITY CONTROLLED BY THE NATIONAL
WEATHER SERVICE. USE DATA WITH CAUTION...ESPECIALLY
DEWPOINT OBSERVATIONS.

SCZ027-030-031-034>040-042>050-262300-
...SOUTHEAST SOUTH CAROLINA...

CITY           SKY/WX    TMP DP  RH WIND       PRES   REMARKS
N CHARLESTON   CLOUDY    70  57  63 SW14      29.85F
WATERFRONT PRK   N/A     68 N/A N/A SW9G15      N/A
MOUNT PLEASANT FAIR      70  61  73 S12       29.85F
PINOPOLIS        N/A     75  63  64 S5        29.77F
MONCKS CORNER  FAIR      72  59  64 S8        29.83F
SUMMERVILLE    FAIR      72  61  68 S7        29.85F
BEAUFORT MCAS  CLOUDY    73  63  70 S6        29.85F
BEAUFORT ARPT  FAIR      72  61  68 S7        29.85F
HILTON HEAD IS SUNNY     73  59  60 SW9G16    29.88F
WALTERBORO     CLOUDY    72  59  64 S13       29.84F
ALLENDALE      FAIR      75  57  53 CALM      29.82S

...SOUTHERN MIDLANDS AND PEE DEE...

CITY           SKY/WX    TMP DP  RH WIND       PRES   REMARKS
GEORGETOWN     NOT AVBL
KINGSTREE      NOT AVBL
ORANGEBURG     CLOUDY    76  55  48 SW8       29.81F
BARNWELL       FAIR      75  55  50 SW9G17    29.82F
AIKEN          FAIR      72  52  49 SW9       29.85S
MANNING        FAIR      72  54  53 S3        29.81F
COLUMBIA       CLOUDY    76  55  48 SW14      29.79F
SUMTER         CLOUDY    75  58  55 SW7       29.78F
FLORENCE       CLOUDY    76  55  48 SW9       29.80F
MYRTLE BEACH   CLOUDY    64  57  77 S13       29.86F
N MYRTLE BEACH CLOUDY    63  59  87 S15       29.84F

$$

GAZ063-065-086>088-099>101-113>116-118-119-134>141-150-262300-
...SOUTHEAST GEORGIA...

CITY           SKY/WX    TMP DP  RH WIND       PRES   REMARKS
SAVANNAH ARPT  CLOUDY    75  55  49 S9        29.86F
HUNTER AAF     NOT AVBL
FORT STEWART   CLOUDY    76  57  53 SW7       29.84F
STATESBORO     CLOUDY    74  58  57 SW9       29.85R
SYLVANIA       CLOUDY    75  61  61 SW3       29.85R
CLAXTON        FAIR      73  59  60 SW5       29.86R

...CSRA...CENTRAL AND FAR SOUTHEAST GEORGIA...

CITY           SKY/WX    TMP DP  RH WIND       PRES   REMARKS
THOMSON        CLOUDY    74  61  63 S8        29.85F
AUGUSTA-BUSH   CLOUDY    74  56  53 SW9       29.81F
AUGUSTA-DANIEL CLOUDY    74  55  51 SW8       29.82F
SWAINSBORO     FAIR      73  46  38 SW5       29.85F
VIDALIA        LGT RAIN  70  61  73 SW7       29.87R
EASTMAN        FAIR      72  60  67 S9        29.86F
HAZLEHURST     LGT RAIN  68  63  83 CALM      29.87S
ALMA           LGT RAIN  67  64  90 SW6       29.88S FOG
WAYCROSS       RAIN      71  69  94 W7        29.87F
JESUP          FAIR      77  64  65 CALM      29.87F
BAXLEY         DRIZZLE   73  63  68 W9G16     29.88R
BRUNSWICK      CLOUDY    75  61  60 SE6       29.88S
SAINT SIMONS   CLOUDY    72  60  66 S7        29.87F

$$

SCZ027-028-034-036>038-045-046-048>050-GAZ119-141-262300-
...LAKE AND SUPPLEMENTAL COASTAL OBSERVATIONS...

STATION/POSITION TIME  TEMP    WIND        PRES    WAVE   SWELL
                       AIR SEA DIR/SP/G            HT/PER HT/PER/DIR
                 (UTC) (F)     (DEG/KT/KT) (MB)    (FT/S) (FT/S/D)
UPR LAKE MARION  NOT AVBL
WINYAH BAY       2100   67     200/  7     1011.0
LAKE MURRAY      2200   72     250/  8/ 13 1008.8F
ACE BASIN NERRS  NOT AVBL
FORT PULASKI     2200          180/  5/  7 1011.8F
SAPELO ISLAND    2200   75     160/  6     1011.0F

$$

ANZ835-935-AMZ111-154-330-350-352-354-370-450-454-472-262300-
...C-MAN AND BUOY OBSERVATIONS...

STATION/POSITION TIME  TEMP    WIND        PRES    WAVE   SWELL
                       AIR SEA DIR/SP/G            HT/PER HT/PER/DIR
                 (UTC) (F)     (DEG/KT/KT) (MB)    (FT/S) (FT/S/D)
BUOY 41004       2150   69 71  200/ 12/ 14 1011.3F   5/ 8   3/ 8
BUOY 41008       2150   64 62  200/  4/  4 1011.7F   3/ 8   3/ 90/ 8
FOLLY BEACH CMAN 2200   63     220/  8/ 10 1011.5F
CAPERS NEARSHORE 2100   61     230/ 10/ 12   N/A
FRIPP NEARSHORE  2100   63     210/ 10/ 14 1011.6F


STATION/POSITION TIME  TEMP    WIND        PRES    WAVE   SWELL
                       AIR SEA DIR/SP/G            HT/PER HT/PER/DIR
                 (UTC) (F)     (DEG/KT/KT) (MB)    (FT/S) (FT/S/D)
5E ST. MARYS GA  2121      66                N/A     2/ 9
FRYING PAN BUOY  2150   69 67  220/ 12/ 14 1012.0F   6/ 8   5/120/ 8
BUOY 41025       NOT AVBL
CAPE LOOKOUT NC  2200   65     200/ 13/ 16 1010.7R
BUOY 41002       2150   70 69  180/ 17/ 21 1015.9F   7/ 7   2/ 70/12
BUOY 41010       2120   77 76  170/ 16/ 17 1013.5F
ST AUGUSTINE FL  2200   65 63  180/  1/  3 1013.1R


$$



USA.gov is the U.S. government's official web portal to all federal, state and local government web resources and services.